Falfurrias, TX

5:30 AM CST on November 21, 2019 (GMT -0600)
Falfurrias

Weather History for KBKS - August, 2019

Change the Weather History Date:

Monday, August 5, 2019

  Actual Average (KNQI) Record (KNQI)
Temperature  
Mean Temperature 90 °F -  
Max Temperature 104 °F 95 °F 102 °F (2010)
Min Temperature 78 °F 74 °F 71 °F (2001)
Cooling Degree Days 26    
Growing Degree Days 40 (Base 50)    
Moisture  
Dew Point 73 °F    
Average Humidity 62    
Maximum Humidity 88    
Minimum Humidity 27    
Precipitation  
Precipitation 0.00 in - - ()
Sea Level Pressure  
Sea Level Pressure 29.91 in    
Wind  
Wind Speed 6 mph ()    
Max Wind Speed 15 mph    
Max Gust Speed 23 mph    
Visibility 10.0 miles    
Events      
Averages and records for this station are not official NWS values.
T = Trace of Precipitation, MM = Missing Value Source: Averaged Metar Reports

Daily Weather History Graph

Daily Weather History Graph

Search for Another Location

Airport or City:

Astronomy

Aug. 05, 2019 Rise Set
Actual Time 6:58 AM CDT 8:18 PM CDT
Civil Twilight 6:33 AM CDT 8:43 PM CDT
Nautical Twilight 6:03 AM CDT 9:12 PM CDT
Astronomical Twilight 5:33 AM CDT 9:43 PM CDT
Moon 11:49 AM CDT (8/5) No Moon Set
Length of Visible Light 14h 09m
Length of Day
13h 19m
Waxing Crescent, 28% of the Moon is Illuminated
Aug 5
Waxing Crescent
Aug 7
First Quarter
Aug 15
Full
Aug 23
Last Quarter
Aug 30
New

Hourly Weather History & Observations

Time (CDT) Temp. Heat Index Dew Point Humidity Pressure Visibility Wind Dir Wind Speed Gust Speed Precip Events Conditions
12:15 AM 84.2 °F 92.3 °F 75.0 °F 74% 29.92 in 10.0 mi SE 9.2 mph - N/A   Clear
12:35 AM 83.8 °F 91.8 °F 75.2 °F 75% 29.92 in 10.0 mi SE 6.9 mph - N/A   Clear
12:55 AM 83.5 °F 91.2 °F 75.2 °F 76% 29.92 in 10.0 mi SSE 6.9 mph - N/A   Clear
1:15 AM 83.3 °F 90.8 °F 75.2 °F 76% 29.92 in 10.0 mi SSE 6.9 mph - N/A   Clear
1:35 AM 82.6 °F 89.7 °F 75.0 °F 78% 29.92 in 10.0 mi SSE 8.1 mph - N/A   Clear
1:55 AM 82.4 °F 89.5 °F 75.2 °F 79% 29.92 in 10.0 mi SSE 6.9 mph - N/A   Clear
2:15 AM 82.0 °F 88.9 °F 75.2 °F 80% 29.92 in 10.0 mi SE 3.5 mph - N/A   Clear
2:35 AM 82.0 °F 88.9 °F 75.4 °F 80% 29.92 in 10.0 mi SSE 5.8 mph - N/A   Scattered Clouds
2:55 AM 81.7 °F 88.3 °F 75.4 °F 81% 29.92 in 10.0 mi SSE 3.5 mph - N/A   Clear
3:15 AM 81.5 °F 88.0 °F 75.4 °F 82% 29.92 in 10.0 mi SSE 4.6 mph - N/A   Clear
3:35 AM 81.1 °F 87.4 °F 75.4 °F 83% 29.92 in 10.0 mi SE 3.5 mph - N/A   Clear
3:55 AM 81.0 °F 86.9 °F 75.4 °F 83% 29.92 in 10.0 mi Calm Calm - N/A   Clear
4:15 AM 80.6 °F 86.2 °F 75.2 °F 84% 29.92 in 10.0 mi SE 3.5 mph - N/A   Clear
4:35 AM 80.2 °F 85.5 °F 75.2 °F 85% 29.92 in 10.0 mi SE 3.5 mph - N/A   Scattered Clouds
4:55 AM 79.9 °F - 75.2 °F 86% 29.92 in 10.0 mi Calm Calm - N/A   Scattered Clouds
5:15 AM 79.7 °F - 74.8 °F 85% 29.92 in 10.0 mi Calm Calm - N/A   Clear
5:35 AM 79.2 °F - 74.7 °F 86% 29.92 in 10.0 mi Calm Calm - N/A   Scattered Clouds
5:55 AM 79.0 °F - 74.7 °F 87% 29.92 in 10.0 mi Calm Calm - N/A   Scattered Clouds
6:15 AM 79.7 °F - 75.0 °F 86% 29.92 in 10.0 mi SE 3.5 mph - N/A   Mostly Cloudy
6:35 AM 79.7 °F - 75.2 °F 86% 29.92 in 10.0 mi Calm Calm - N/A   Scattered Clouds
6:55 AM 79.2 °F - 74.7 °F 86% 29.93 in 10.0 mi Calm Calm - N/A   Clear
7:15 AM 78.1 °F - 74.3 °F 88% 29.93 in 10.0 mi ESE 3.5 mph - N/A   Clear
7:35 AM 78.8 °F - 74.8 °F 88% 29.93 in 10.0 mi ESE 3.5 mph - N/A   Clear
7:55 AM 80.2 °F 85.5 °F 75.4 °F 85% 29.94 in 10.0 mi SE 4.6 mph - N/A   Clear
8:15 AM 82.8 °F 90.7 °F 76.1 °F 80% 29.94 in 10.0 mi SE 6.9 mph - N/A   Clear
8:35 AM 84.6 °F 93.9 °F 76.1 °F 76% 29.94 in 10.0 mi SE 6.9 mph - N/A   Clear
8:55 AM 85.8 °F 95.9 °F 76.1 °F 73% 29.94 in 10.0 mi SSE 6.9 mph - N/A   Clear
9:15 AM 86.7 °F 96.9 °F 75.7 °F 70% 29.94 in 10.0 mi South 8.1 mph - N/A   Clear
9:35 AM 88.3 °F 97.9 °F 74.7 °F 64% 29.94 in 10.0 mi SSE 11.5 mph - N/A   Clear
9:55 AM 89.8 °F 98.6 °F 73.6 °F 59% 29.94 in 10.0 mi South 11.5 mph 16.1 mph N/A   Clear
10:15 AM 91.4 °F 100.1 °F 73.4 °F 55% 29.94 in 10.0 mi South 12.7 mph - N/A   Clear
10:40 AM 92.3 °F 99.7 °F 71.8 °F 51% 29.94 in 10.0 mi SSE 10.4 mph 16.1 mph N/A   Clear
10:55 AM 93.0 °F 100.1 °F 71.1 °F 49% 29.94 in 10.0 mi SE 8.1 mph - N/A   Clear
11:15 AM 93.9 °F 100.8 °F 70.7 °F 47% 29.94 in 10.0 mi SE 10.4 mph - N/A   Clear
11:35 AM 95.4 °F 101.4 °F 69.8 °F 43% 29.93 in 10.0 mi South 4.6 mph - N/A   Clear
11:55 AM 95.7 °F 101.5 °F 69.4 °F 42% 29.93 in 10.0 mi SSE 3.5 mph - N/A   Clear
12:15 PM 97.5 °F 102.6 °F 68.2 °F 38% 29.92 in 10.0 mi SSE 10.4 mph - N/A   Scattered Clouds
12:35 PM 95.9 °F 100.7 °F 68.0 °F 40% 29.92 in 10.0 mi South 3.5 mph - N/A   Scattered Clouds
12:55 PM 99.3 °F 103.5 °F 66.0 °F 34% 29.91 in 10.0 mi ESE 4.6 mph - N/A   Mostly Cloudy
1:15 PM 98.8 °F 103.2 °F 66.9 °F 35% 29.90 in 10.0 mi South 4.6 mph 9.2 mph N/A   Scattered Clouds
1:35 PM 100.4 °F 104.9 °F 66.2 °F 33% 29.90 in 10.0 mi ESE 5.8 mph - N/A   Clear
1:55 PM 100.2 °F 103.9 °F 65.5 °F 32% 29.89 in 10.0 mi Calm Calm - N/A   Scattered Clouds
2:15 PM 100.6 °F 103.9 °F 65.1 °F 31% 29.88 in 10.0 mi ESE 9.2 mph - N/A   Scattered Clouds
2:35 PM 102.9 °F 106.8 °F 65.3 °F 29% 29.87 in 10.0 mi SE 9.2 mph 16.1 mph N/A   Scattered Clouds
2:55 PM 100.2 °F 103.3 °F 64.6 °F 31% 29.87 in 10.0 mi SE 6.9 mph - N/A   Scattered Clouds
3:15 PM 103.1 °F 106.5 °F 64.0 °F 28% 29.86 in 10.0 mi East 6.9 mph - N/A   Overcast
3:35 PM 101.8 °F 104.3 °F 63.5 °F 28% 29.86 in 10.0 mi South 6.9 mph 16.1 mph N/A   Mostly Cloudy
3:55 PM 102.6 °F 104.8 °F 63.0 °F 27% 29.85 in 10.0 mi SE 6.9 mph - N/A   Overcast
4:15 PM 95.9 °F 105.2 °F 72.5 °F 47% 29.87 in 10.0 mi East 12.7 mph 23.0 mph N/A   Overcast
4:35 PM 95.0 °F 104.5 °F 73.4 °F 49% 29.86 in 10.0 mi East 11.5 mph 19.6 mph N/A   Scattered Clouds
4:55 PM 95.4 °F 104.0 °F 72.5 °F 47% 29.86 in 10.0 mi East 12.7 mph 19.6 mph N/A   Clear
5:15 PM 96.4 °F 105.0 °F 72.0 °F 45% 29.85 in 10.0 mi East 13.8 mph 19.6 mph N/A   Clear
5:35 PM 98.1 °F 107.2 °F 72.1 °F 43% 29.85 in 10.0 mi East 13.8 mph 19.6 mph N/A   Clear
5:55 PM 97.0 °F 105.5 °F 71.8 °F 44% 29.85 in 10.0 mi ESE 15.0 mph - N/A   Clear
6:15 PM 96.3 °F 103.9 °F 71.1 °F 44% 29.86 in 10.0 mi ESE 12.7 mph 20.7 mph N/A   Clear
6:35 PM 95.4 °F 104.0 °F 72.1 °F 47% 29.86 in 10.0 mi ESE 15.0 mph 23.0 mph N/A   Clear
6:55 PM 94.8 °F 104.1 °F 73.0 °F 49% 29.85 in 10.0 mi ESE 12.7 mph 19.6 mph N/A   Clear
7:15 PM 94.1 °F 103.8 °F 73.2 °F 51% 29.86 in 10.0 mi ESE 13.8 mph 18.4 mph N/A   Clear
7:35 PM 93.2 °F 101.1 °F 72.1 °F 50% 29.86 in 10.0 mi ESE 15.0 mph 23.0 mph N/A   Clear
7:55 PM 91.9 °F 100.1 °F 72.5 °F 53% 29.87 in 10.0 mi ESE 15.0 mph 19.6 mph N/A   Clear
8:15 PM 90.7 °F 99.0 °F 73.0 °F 56% 29.88 in 10.0 mi ESE 9.2 mph 19.6 mph N/A   Clear
8:35 PM 89.6 °F 98.2 °F 73.6 °F 59% 29.88 in 10.0 mi ESE 10.4 mph 19.6 mph N/A   Clear
8:55 PM 88.7 °F 97.7 °F 73.9 °F 62% 29.88 in 10.0 mi ESE 10.4 mph - N/A   Clear
9:15 PM 88.2 °F 96.9 °F 74.3 °F 63% 29.89 in 10.0 mi ESE 9.2 mph 16.1 mph N/A   Clear
9:55 PM 86.9 °F 96.8 °F 75.7 °F 69% 29.90 in 10.0 mi SE 9.2 mph - N/A   Clear
10:15 PM 86.4 °F 96.4 °F 76.1 °F 71% 29.91 in 10.0 mi SE 10.4 mph - N/A   Clear
10:35 PM 86.0 °F 96.0 °F 76.1 °F 72% 29.91 in 10.0 mi SE 6.9 mph - N/A   Clear
10:55 PM 86.0 °F 96.4 °F 76.5 °F 73% 29.92 in 10.0 mi SE 8.1 mph - N/A   Clear
11:15 PM 85.3 °F 95.4 °F 76.5 °F 75% 29.93 in 10.0 mi SE 5.8 mph - N/A   Clear
11:35 PM 85.1 °F 95.4 °F 76.6 °F 76% 29.93 in 10.0 mi SE 6.9 mph - N/A   Clear
11:55 PM 84.9 °F 94.9 °F 76.6 °F 76% 29.93 in 10.0 mi SE 6.9 mph - N/A   Clear